Time,TemperatureF,DewpointF,PressureIn,WindDirection,WindDirectionDegrees,WindSpeedMPH,WindSpeedGustMPH,Humidity,HourlyPrecipIn,Conditions,Clouds,dailyrainin,SoftwareType,DateUTC
2013-03-05 00:00:00,33.1,23.4,29.71,WNW,291,2.0,14.0,67,0.00,,---,0.00,VWS V14.01,2013-03-05 05:00:00,
2013-03-05 00:05:00,33.1,23.4,29.72,WNW,298,4.0,11.0,67,0.00,,---,0.00,VWS V14.01,2013-03-05 05:05:00,
2013-03-05 00:10:00,32.9,23.5,29.72,NW,320,3.0,10.0,68,0.00,,---,0.00,VWS V14.01,2013-03-05 05:10:00,
2013-03-05 00:15:00,32.9,23.2,29.73,WNW,296,8.0,11.0,67,0.00,,---,0.00,VWS V14.01,2013-03-05 05:15:00,
2013-03-05 00:20:00,32.9,23.5,29.73,NNW,339,2.0,10.0,68,0.00,,---,0.00,VWS V14.01,2013-03-05 05:20:00,
2013-03-05 00:25:00,32.8,23.4,29.73,NNW,342,7.0,11.0,68,0.00,,---,0.00,VWS V14.01,2013-03-05 05:25:00,
2013-03-05 00:30:00,32.8,23.1,29.74,WNW,301,3.0,10.0,67,0.00,,---,0.00,VWS V14.01,2013-03-05 05:30:00,
2013-03-05 00:35:00,32.8,23.4,29.74,NNW,336,6.0,9.0,68,0.00,,---,0.00,VWS V14.01,2013-03-05 05:35:00,
2013-03-05 00:40:00,32.8,23.1,29.74,NW,314,2.0,7.0,67,0.00,,---,0.00,VWS V14.01,2013-03-05 05:40:00,
2013-03-05 00:45:00,32.8,23.1,29.74,NW,305,2.0,8.0,67,0.00,,---,0.00,VWS V14.01,2013-03-05 05:45:00,
2013-03-05 00:50:00,32.8,23.1,29.74,WSW,244,4.0,6.0,67,0.00,,---,0.00,VWS V14.01,2013-03-05 05:50:00,
2013-03-05 00:55:00,32.7,23.0,29.74,NW,306,3.0,9.0,67,0.00,,---,0.00,VWS V14.01,2013-03-05 05:55:00,
2013-03-05 01:00:00,32.7,23.0,29.75,NW,315,3.0,6.0,67,0.00,,---,0.00,VWS V14.01,2013-03-05 06:00:00,
2013-03-05 01:05:00,32.7,23.0,29.75,NW,323,3.0,6.0,67,0.00,,---,0.00,VWS V14.01,2013-03-05 06:05:00,
2013-03-05 01:10:00,32.5,22.8,29.75,WNW,288,0.0,7.0,67,0.00,,---,0.00,VWS V14.01,2013-03-05 06:10:00,
2013-03-05 01:15:00,32.5,22.8,29.75,West,263,7.0,8.0,67,0.00,,---,0.00,VWS V14.01,2013-03-05 06:15:00,
2013-03-05 01:20:00,32.4,22.7,29.75,NNW,344,7.0,11.0,67,0.00,,---,0.00,VWS V14.01,2013-03-05 06:20:00,
2013-03-05 01:25:00,32.4,22.7,29.75,NNW,327,6.0,9.0,67,0.00,,---,0.00,VWS V14.01,2013-03-05 06:25:00,
2013-03-05 01:30:00,32.4,23.0,29.75,WNW,288,3.0,6.0,68,0.00,,---,0.00,VWS V14.01,2013-03-05 06:30:00,
2013-03-05 01:35:00,32.4,23.0,29.75,NW,325,4.0,6.0,68,0.00,,---,0.00,VWS V14.01,2013-03-05 06:35:00,
2013-03-05 01:40:00,32.2,22.8,29.75,NW,318,2.0,12.0,68,0.00,,---,0.00,VWS V14.01,2013-03-05 06:40:00,
2013-03-05 01:45:00,32.2,22.8,29.76,NNE,26,3.0,10.0,68,0.00,,---,0.00,VWS V14.01,2013-03-05 06:45:00,
2013-03-05 01:50:00,32.2,22.8,29.76,North,351,3.0,11.0,68,0.00,,---,0.00,VWS V14.01,2013-03-05 06:50:00,
2013-03-05 01:55:00,32.2,22.5,29.76,NNW,339,3.0,9.0,67,0.00,,---,0.00,VWS V14.01,2013-03-05 06:55:00,
2013-03-05 02:00:00,32.1,22.8,29.76,NW,317,5.0,8.0,68,0.00,,---,0.00,VWS V14.01,2013-03-05 07:00:00,
2013-03-05 02:05:00,32.1,22.8,29.76,WNW,295,5.0,10.0,68,0.00,,---,0.00,VWS V14.01,2013-03-05 07:05:00,
2013-03-05 02:10:00,32.1,22.8,29.76,NNW,329,6.0,6.0,68,0.00,,---,0.00,VWS V14.01,2013-03-05 07:10:00,
2013-03-05 02:15:00,31.9,22.5,29.76,NNE,32,4.0,9.0,68,0.00,,---,0.00,VWS V14.01,2013-03-05 07:15:00,
2013-03-05 02:20:00,31.9,22.5,29.76,NW,305,9.0,12.0,68,0.00,,---,0.00,VWS V14.01,2013-03-05 07:20:00,
2013-03-05 02:25:00,31.8,22.5,29.76,NW,306,6.0,11.0,68,0.00,,---,0.00,VWS V14.01,2013-03-05 07:25:00,
2013-03-05 02:30:00,31.8,22.5,29.76,West,274,3.0,9.0,68,0.00,,---,0.00,VWS V14.01,2013-03-05 07:30:00,
2013-03-05 02:35:00,31.6,22.3,29.76,WNW,298,6.0,10.0,68,0.00,,---,0.00,VWS V14.01,2013-03-05 07:35:00,
2013-03-05 02:40:00,31.5,22.2,29.76,WNW,285,3.0,8.0,68,0.00,,---,0.00,VWS V14.01,2013-03-05 07:40:00,
2013-03-05 02:45:00,31.5,22.2,29.76,West,268,3.0,11.0,68,0.00,,---,0.00,VWS V14.01,2013-03-05 07:45:00,
2013-03-05 02:50:00,31.5,22.2,29.76,NNW,333,8.0,11.0,68,0.00,,---,0.00,VWS V14.01,2013-03-05 07:50:00,
2013-03-05 02:55:00,31.3,22.0,29.76,NNW,338,7.0,9.0,68,0.00,,---,0.00,VWS V14.01,2013-03-05 07:55:00,
2013-03-05 03:00:00,31.3,22.0,29.76,West,265,3.0,9.0,68,0.00,,---,0.00,VWS V14.01,2013-03-05 08:00:00,
2013-03-05 03:05:00,31.2,21.9,29.77,WNW,296,2.0,6.0,68,0.00,,---,0.00,VWS V14.01,2013-03-05 08:05:00,
2013-03-05 03:10:00,31.2,21.9,29.77,NNW,333,2.0,7.0,68,0.00,,---,0.00,VWS V14.01,2013-03-05 08:10:00,
2013-03-05 03:15:00,31.0,21.7,29.77,NW,310,7.0,9.0,68,0.00,,---,0.00,VWS V14.01,2013-03-05 08:15:00,
2013-03-05 03:20:00,31.0,21.7,29.77,North,360,4.0,8.0,68,0.00,,---,0.00,VWS V14.01,2013-03-05 08:20:00,
2013-03-05 03:25:00,31.0,21.7,29.77,West,277,4.0,11.0,68,0.00,,---,0.00,VWS V14.01,2013-03-05 08:25:00,
2013-03-05 03:30:00,31.0,21.7,29.77,NW,313,4.0,9.0,68,0.00,,---,0.00,VWS V14.01,2013-03-05 08:30:00,
2013-03-05 03:35:00,31.0,21.7,29.78,WNW,288,4.0,8.0,68,0.00,,---,0.00,VWS V14.01,2013-03-05 08:35:00,
2013-03-05 03:40:00,31.0,21.7,29.78,NNW,340,5.0,8.0,68,0.00,,---,0.00,VWS V14.01,2013-03-05 08:40:00,
2013-03-05 03:45:00,31.0,21.7,29.78,NW,309,5.0,5.0,68,0.00,,---,0.00,VWS V14.01,2013-03-05 08:45:00,
2013-03-05 03:50:00,31.0,21.7,29.78,WNW,284,3.0,6.0,68,0.00,,---,0.00,VWS V14.01,2013-03-05 08:50:00,
2013-03-05 03:55:00,31.0,21.7,29.78,NNW,338,3.0,9.0,68,0.00,,---,0.00,VWS V14.01,2013-03-05 08:55:00,
2013-03-05 04:00:00,30.9,21.9,29.78,West,273,4.0,7.0,69,0.00,,---,0.00,VWS V14.01,2013-03-05 09:00:00,
2013-03-05 04:05:00,30.9,21.9,29.79,NW,304,5.0,6.0,69,0.00,,---,0.00,VWS V14.01,2013-03-05 09:05:00,
2013-03-05 04:10:00,30.9,21.9,29.79,NW,306,2.0,7.0,69,0.00,,---,0.00,VWS V14.01,2013-03-05 09:10:00,
2013-03-05 04:15:00,30.9,21.9,29.79,WNW,282,3.0,8.0,69,0.00,,---,0.00,VWS V14.01,2013-03-05 09:15:00,
2013-03-05 04:20:00,30.9,21.9,29.80,North,5,4.0,6.0,69,0.00,,---,0.00,VWS V14.01,2013-03-05 09:20:00,
2013-03-05 04:25:00,30.9,21.9,29.80,North,351,4.0,9.0,69,0.00,,---,0.00,VWS V14.01,2013-03-05 09:25:00,
2013-03-05 04:30:00,30.7,21.8,29.80,NW,319,4.0,8.0,69,0.00,,---,0.00,VWS V14.01,2013-03-05 09:30:00,
2013-03-05 04:35:00,30.7,21.8,29.81,NW,319,3.0,7.0,69,0.00,,---,0.00,VWS V14.01,2013-03-05 09:35:00,
2013-03-05 04:40:00,30.7,21.8,29.81,WNW,296,3.0,7.0,69,0.00,,---,0.00,VWS V14.01,2013-03-05 09:40:00,
2013-03-05 04:45:00,30.7,21.8,29.81,WNW,290,3.0,8.0,69,0.00,,---,0.00,VWS V14.01,2013-03-05 09:45:00,
2013-03-05 04:50:00,30.7,21.8,29.81,West,279,3.0,7.0,69,0.00,,---,0.00,VWS V14.01,2013-03-05 09:50:00,
2013-03-05 04:55:00,30.7,21.8,29.81,WNW,288,2.0,9.0,69,0.00,,---,0.00,VWS V14.01,2013-03-05 09:55:00,
2013-03-05 05:00:00,30.7,21.8,29.81,NW,318,4.0,5.0,69,0.00,,---,0.00,VWS V14.01,2013-03-05 10:00:00,
2013-03-05 05:05:00,30.7,21.8,29.82,North,350,5.0,5.0,69,0.00,,---,0.00,VWS V14.01,2013-03-05 10:05:00,
2013-03-05 05:10:00,30.7,21.8,29.82,NNW,345,1.0,9.0,69,0.00,,---,0.00,VWS V14.01,2013-03-05 10:10:00,
2013-03-05 05:15:00,30.7,22.1,29.82,NNW,346,4.0,7.0,70,0.00,,---,0.00,VWS V14.01,2013-03-05 10:15:00,
2013-03-05 05:20:00,30.6,22.0,29.83,NW,306,2.0,5.0,70,0.00,,---,0.00,VWS V14.01,2013-03-05 10:20:00,
2013-03-05 05:25:00,30.6,22.0,29.83,NNW,334,7.0,7.0,70,0.00,,---,0.00,VWS V14.01,2013-03-05 10:25:00,
2013-03-05 05:30:00,30.6,22.0,29.83,WNW,294,3.0,7.0,70,0.00,,---,0.00,VWS V14.01,2013-03-05 10:30:00,
2013-03-05 05:35:00,30.6,22.0,29.83,North,351,1.0,9.0,70,0.00,,---,0.00,VWS V14.01,2013-03-05 10:35:00,
2013-03-05 05:40:00,30.6,22.0,29.83,WNW,298,2.0,9.0,70,0.00,,---,0.00,VWS V14.01,2013-03-05 10:40:00,
2013-03-05 05:45:00,30.6,22.0,29.83,North,360,8.0,8.0,70,0.00,,---,0.00,VWS V14.01,2013-03-05 10:45:00,
2013-03-05 05:50:00,30.6,22.0,29.84,WNW,302,3.0,8.0,70,0.00,,---,0.00,VWS V14.01,2013-03-05 10:50:00,
2013-03-05 05:55:00,30.6,22.0,29.84,NNW,332,6.0,6.0,70,0.00,,---,0.00,VWS V14.01,2013-03-05 10:55:00,
2013-03-05 06:00:00,30.6,22.0,29.84,NNW,346,2.0,10.0,70,0.00,,---,0.00,VWS V14.01,2013-03-05 11:00:00,
2013-03-05 06:05:00,30.6,22.0,29.84,NNW,342,3.0,8.0,70,0.00,,---,0.00,VWS V14.01,2013-03-05 11:05:00,
2013-03-05 06:10:00,30.6,22.0,29.84,NW,314,6.0,8.0,70,0.00,,---,0.00,VWS V14.01,2013-03-05 11:10:00,
2013-03-05 06:15:00,30.6,22.0,29.84,West,274,5.0,11.0,70,0.00,,---,0.00,VWS V14.01,2013-03-05 11:15:00,
2013-03-05 06:20:00,30.6,22.0,29.84,NNW,333,3.0,9.0,70,0.00,,---,0.00,VWS V14.01,2013-03-05 11:20:00,
2013-03-05 06:25:00,30.7,22.4,29.84,NNE,24,5.0,14.0,71,0.00,,---,0.00,VWS V14.01,2013-03-05 11:25:00,
2013-03-05 06:30:00,30.7,22.4,29.84,NNW,338,4.0,9.0,71,0.00,,---,0.00,VWS V14.01,2013-03-05 11:30:00,
2013-03-05 06:35:00,30.9,22.3,29.85,NNW,345,4.0,8.0,70,0.00,,---,0.00,VWS V14.01,2013-03-05 11:35:00,
2013-03-05 06:40:00,31.0,22.4,29.85,NW,312,3.0,13.0,70,0.00,,---,0.00,VWS V14.01,2013-03-05 11:40:00,
2013-03-05 06:45:00,31.0,22.4,29.85,North,349,3.0,11.0,70,0.00,,---,0.00,VWS V14.01,2013-03-05 11:45:00,
2013-03-05 06:50:00,31.2,22.6,29.86,West,276,5.0,8.0,70,0.00,,---,0.00,VWS V14.01,2013-03-05 11:50:00,
2013-03-05 06:55:00,31.3,22.7,29.86,West,277,8.0,8.0,70,0.00,,---,0.00,VWS V14.01,2013-03-05 11:55:00,
2013-03-05 07:00:00,31.5,22.9,29.86,North,349,3.0,8.0,70,0.00,,---,0.00,VWS V14.01,2013-03-05 12:00:00,
2013-03-05 07:05:00,31.5,22.5,29.86,WNW,290,1.0,7.0,69,0.00,,---,0.00,VWS V14.01,2013-03-05 12:05:00,
2013-03-05 07:10:00,31.6,22.6,29.86,West,266,0.0,4.0,69,0.00,,---,0.00,VWS V14.01,2013-03-05 12:10:00,
2013-03-05 07:15:00,31.8,22.8,29.86,NW,309,0.0,5.0,69,0.00,,---,0.00,VWS V14.01,2013-03-05 12:15:00,
2013-03-05 07:20:00,31.9,22.9,29.88,North,9,6.0,8.0,69,0.00,,---,0.00,VWS V14.01,2013-03-05 12:20:00,
2013-03-05 07:25:00,32.1,23.1,29.88,WNW,290,2.0,6.0,69,0.00,,---,0.00,VWS V14.01,2013-03-05 12:25:00,
2013-03-05 07:30:00,32.1,23.1,29.88,NW,306,4.0,8.0,69,0.00,,---,0.00,VWS V14.01,2013-03-05 12:30:00,
2013-03-05 07:35:00,32.2,22.8,29.88,WNW,298,4.0,11.0,68,0.00,,---,0.00,VWS V14.01,2013-03-05 12:35:00,
2013-03-05 07:40:00,32.4,23.0,29.88,WNW,282,1.0,7.0,68,0.00,,---,0.00,VWS V14.01,2013-03-05 12:40:00,
2013-03-05 07:45:00,32.5,23.1,29.88,NW,325,5.0,6.0,68,0.00,,---,0.00,VWS V14.01,2013-03-05 12:45:00,
2013-03-05 07:50:00,32.7,23.3,29.88,West,279,3.0,6.0,68,0.00,,---,0.00,VWS V14.01,2013-03-05 12:50:00,
2013-03-05 07:55:00,32.8,23.4,29.88,NNW,327,3.0,8.0,68,0.00,,---,0.00,VWS V14.01,2013-03-05 12:55:00,
2013-03-05 08:00:00,32.9,23.5,29.88,NNW,332,3.0,4.0,68,0.00,,---,0.00,VWS V14.01,2013-03-05 13:00:00,
2013-03-05 08:05:00,33.1,23.7,29.89,NW,307,6.0,6.0,68,0.00,,---,0.00,VWS V14.01,2013-03-05 13:05:00,
2013-03-05 08:10:00,33.4,24.0,29.89,NW,326,5.0,6.0,68,0.00,,---,0.00,VWS V14.01,2013-03-05 13:10:00,
2013-03-05 08:15:00,33.5,23.7,29.89,NNW,330,4.0,5.0,67,0.00,,---,0.00,VWS V14.01,2013-03-05 13:15:00,
2013-03-05 08:20:00,33.5,23.7,29.89,WNW,301,0.0,5.0,67,0.00,,---,0.00,VWS V14.01,2013-03-05 13:20:00,
2013-03-05 08:25:00,33.8,24.0,29.89,West,281,4.0,10.0,67,0.00,,---,0.00,VWS V14.01,2013-03-05 13:25:00,
2013-03-05 08:30:00,34.0,24.2,29.89,NW,323,9.0,10.0,67,0.00,,---,0.00,VWS V14.01,2013-03-05 13:30:00,
2013-03-05 08:35:00,34.1,24.3,29.89,WNW,295,2.0,7.0,67,0.00,,---,0.00,VWS V14.01,2013-03-05 13:35:00,
2013-03-05 08:40:00,34.3,24.1,29.89,North,360,0.0,6.0,66,0.00,,---,0.00,VWS V14.01,2013-03-05 13:40:00,
2013-03-05 08:45:00,34.6,24.4,29.89,NW,323,5.0,8.0,66,0.00,,---,0.00,VWS V14.01,2013-03-05 13:45:00,
2013-03-05 08:50:00,34.9,24.3,29.90,NNW,327,4.0,8.0,65,0.00,,---,0.00,VWS V14.01,2013-03-05 13:50:00,
2013-03-05 08:55:00,35.6,25.0,29.90,NW,313,6.0,6.0,65,0.00,,---,0.00,VWS V14.01,2013-03-05 13:55:00,
2013-03-05 09:00:00,36.3,24.9,29.90,North,360,5.0,11.0,63,0.00,,---,0.00,VWS V14.01,2013-03-05 14:00:00,
2013-03-05 09:05:00,36.5,25.1,29.90,NW,315,1.0,9.0,63,0.00,,---,0.00,VWS V14.01,2013-03-05 14:05:00,
2013-03-05 09:10:00,36.9,25.5,29.90,NW,321,5.0,7.0,63,0.00,,---,0.00,VWS V14.01,2013-03-05 14:10:00,
2013-03-05 09:15:00,37.2,25.4,29.90,North,351,6.0,9.0,62,0.00,,---,0.00,VWS V14.01,2013-03-05 14:15:00,
2013-03-05 09:20:00,37.3,25.5,29.90,NW,312,9.0,10.0,62,0.00,,---,0.00,VWS V14.01,2013-03-05 14:20:00,
2013-03-05 09:25:00,38.0,25.8,29.90,NNE,22,4.0,11.0,61,0.00,,---,0.00,VWS V14.01,2013-03-05 14:25:00,
2013-03-05 09:30:00,38.6,25.9,29.90,NNE,22,4.0,11.0,60,0.00,,---,0.00,VWS V14.01,2013-03-05 14:30:00,
2013-03-05 09:35:00,38.8,26.1,29.90,North,355,7.0,9.0,60,0.00,,---,0.00,VWS V14.01,2013-03-05 14:35:00,
2013-03-05 09:40:00,39.1,26.4,29.90,North,360,8.0,12.0,60,0.00,,---,0.00,VWS V14.01,2013-03-05 14:40:00,
2013-03-05 09:45:00,39.1,26.4,29.90,NNW,338,7.0,12.0,60,0.00,,---,0.00,VWS V14.01,2013-03-05 14:45:00,
2013-03-05 09:50:00,39.2,26.5,29.90,NNE,13,10.0,14.0,60,0.00,,---,0.00,VWS V14.01,2013-03-05 14:50:00,
2013-03-05 09:55:00,39.3,26.2,29.90,North,5,8.0,15.0,59,0.00,,---,0.00,VWS V14.01,2013-03-05 14:55:00,
2013-03-05 10:00:00,39.9,27.2,29.90,West,263,3.0,12.0,60,0.00,,---,0.00,VWS V14.01,2013-03-05 15:00:00,
2013-03-05 10:05:00,40.5,27.3,29.90,NNE,15,4.0,10.0,59,0.00,,---,0.00,VWS V14.01,2013-03-05 15:05:00,
2013-03-05 10:10:00,40.8,27.2,29.90,NNE,12,5.0,7.0,58,0.00,,---,0.00,VWS V14.01,2013-03-05 15:10:00,
2013-03-05 10:15:00,40.5,27.3,29.90,NE,40,9.0,12.0,59,0.00,,---,0.00,VWS V14.01,2013-03-05 15:15:00,
2013-03-05 10:20:00,40.6,27.4,29.90,NNE,22,3.0,11.0,59,0.00,,---,0.00,VWS V14.01,2013-03-05 15:20:00,
2013-03-05 10:25:00,40.8,27.6,29.90,NE,44,5.0,9.0,59,0.00,,---,0.00,VWS V14.01,2013-03-05 15:25:00,
2013-03-05 10:30:00,41.2,27.6,29.90,NE,43,12.0,12.0,58,0.00,,---,0.00,VWS V14.01,2013-03-05 15:30:00,
2013-03-05 10:35:00,41.5,27.8,29.91,NE,44,6.0,12.0,58,0.00,,---,0.00,VWS V14.01,2013-03-05 15:35:00,
2013-03-05 10:40:00,41.5,27.8,29.91,NW,325,4.0,13.0,58,0.00,,---,0.00,VWS V14.01,2013-03-05 15:40:00,
2013-03-05 10:45:00,41.2,27.6,29.91,NNE,15,7.0,11.0,58,0.00,,---,0.00,VWS V14.01,2013-03-05 15:45:00,
2013-03-05 10:50:00,41.1,27.5,29.91,NE,40,2.0,9.0,58,0.00,,---,0.00,VWS V14.01,2013-03-05 15:50:00,
2013-03-05 10:55:00,40.9,27.7,29.91,NNW,329,6.0,9.0,59,0.00,,---,0.00,VWS V14.01,2013-03-05 15:55:00,
2013-03-05 11:00:00,40.9,28.1,29.91,North,360,5.0,7.0,60,0.00,,---,0.00,VWS V14.01,2013-03-05 16:00:00,
2013-03-05 11:05:00,40.8,27.6,29.91,NNW,333,3.0,9.0,59,0.00,,---,0.00,VWS V14.01,2013-03-05 16:05:00,
2013-03-05 11:10:00,40.8,28.0,29.91,North,10,3.0,10.0,60,0.00,,---,0.00,VWS V14.01,2013-03-05 16:10:00,
2013-03-05 11:15:00,40.8,28.0,29.91,ENE,76,3.0,8.0,60,0.00,,---,0.00,VWS V14.01,2013-03-05 16:15:00,
2013-03-05 11:20:00,40.8,28.0,29.91,NNE,25,4.0,10.0,60,0.00,,---,0.00,VWS V14.01,2013-03-05 16:20:00,
2013-03-05 11:25:00,40.8,28.0,29.91,North,10,4.0,10.0,60,0.00,,---,0.00,VWS V14.01,2013-03-05 16:25:00,
2013-03-05 11:30:00,40.8,28.4,29.91,NNE,28,2.0,7.0,61,0.00,,---,0.00,VWS V14.01,2013-03-05 16:30:00,
2013-03-05 11:35:00,41.1,28.3,29.91,ENE,59,0.0,9.0,60,0.00,,---,0.00,VWS V14.01,2013-03-05 16:35:00,
2013-03-05 11:40:00,41.2,28.4,29.91,NNE,13,5.0,8.0,60,0.00,,---,0.00,VWS V14.01,2013-03-05 16:40:00,
2013-03-05 11:45:00,41.2,28.4,29.91,North,360,7.0,8.0,60,0.00,,---,0.00,VWS V14.01,2013-03-05 16:45:00,
2013-03-05 11:50:00,41.5,28.7,29.91,NNE,17,5.0,13.0,60,0.00,,---,0.00,VWS V14.01,2013-03-05 16:50:00,
2013-03-05 11:55:00,41.5,28.3,29.91,NNW,327,5.0,8.0,59,0.00,,---,0.00,VWS V14.01,2013-03-05 16:55:00,
2013-03-05 12:00:00,41.6,28.4,29.91,North,351,3.0,7.0,59,0.00,,---,0.00,VWS V14.01,2013-03-05 17:00:00,
2013-03-05 12:05:00,41.9,28.6,29.91,NE,38,9.0,12.0,59,0.00,,---,0.00,VWS V14.01,2013-03-05 17:05:00,
2013-03-05 12:10:00,41.9,28.6,29.91,NNW,327,2.0,12.0,59,0.00,,---,0.00,VWS V14.01,2013-03-05 17:10:00,
2013-03-05 12:15:00,42.6,28.9,29.91,East,81,2.0,4.0,58,0.00,,---,0.00,VWS V14.01,2013-03-05 17:15:00,
2013-03-05 12:20:00,43.2,29.0,29.91,NE,38,3.0,11.0,57,0.00,,---,0.00,VWS V14.01,2013-03-05 17:20:00,
2013-03-05 12:25:00,43.1,28.9,29.91,WNW,303,3.0,6.0,57,0.00,,---,0.00,VWS V14.01,2013-03-05 17:25:00,
2013-03-05 12:30:00,43.8,29.6,29.91,NNW,348,7.0,8.0,57,0.00,,---,0.00,VWS V14.01,2013-03-05 17:30:00,
2013-03-05 12:35:00,43.3,29.1,29.91,NNE,28,6.0,12.0,57,0.00,,---,0.00,VWS V14.01,2013-03-05 17:35:00,
2013-03-05 12:40:00,43.3,29.1,29.91,NNE,33,3.0,6.0,57,0.00,,---,0.00,VWS V14.01,2013-03-05 17:40:00,
2013-03-05 12:45:00,43.6,29.8,29.91,NNW,336,6.0,10.0,58,0.00,,---,0.00,VWS V14.01,2013-03-05 17:45:00,
2013-03-05 12:50:00,44.1,30.3,29.90,North,351,1.0,8.0,58,0.00,,---,0.00,VWS V14.01,2013-03-05 17:50:00,
2013-03-05 12:55:00,44.6,29.9,29.90,NW,323,2.0,8.0,56,0.00,,---,0.00,VWS V14.01,2013-03-05 17:55:00,
2013-03-05 13:00:00,44.8,29.6,29.90,NNE,18,10.0,10.0,55,0.00,,---,0.00,VWS V14.01,2013-03-05 18:00:00,
2013-03-05 13:05:00,44.5,29.4,29.90,NE,34,5.0,10.0,55,0.00,,---,0.00,VWS V14.01,2013-03-05 18:05:00,
2013-03-05 13:10:00,44.1,29.4,29.90,NW,311,3.0,9.0,56,0.00,,---,0.00,VWS V14.01,2013-03-05 18:10:00,
2013-03-05 13:15:00,44.2,30.0,29.90,NE,51,0.0,5.0,57,0.00,,---,0.00,VWS V14.01,2013-03-05 18:15:00,
2013-03-05 13:20:00,44.5,29.4,29.91,NE,44,2.0,8.0,55,0.00,,---,0.00,VWS V14.01,2013-03-05 18:20:00,
2013-03-05 13:25:00,44.6,29.9,29.91,ESE,123,6.0,6.0,56,0.00,,---,0.00,VWS V14.01,2013-03-05 18:25:00,
2013-03-05 13:30:00,44.9,29.7,29.91,NNE,15,7.0,13.0,55,0.00,,---,0.00,VWS V14.01,2013-03-05 18:30:00,
2013-03-05 13:35:00,44.9,29.7,29.91,NNE,28,10.0,10.0,55,0.00,,---,0.00,VWS V14.01,2013-03-05 18:35:00,
2013-03-05 13:40:00,44.8,29.2,29.91,North,360,6.0,10.0,54,0.00,,---,0.00,VWS V14.01,2013-03-05 18:40:00,
2013-03-05 13:45:00,44.6,29.5,29.91,ENE,63,7.0,8.0,55,0.00,,---,0.00,VWS V14.01,2013-03-05 18:45:00,
2013-03-05 13:50:00,44.6,29.5,29.91,NNE,21,3.0,10.0,55,0.00,,---,0.00,VWS V14.01,2013-03-05 18:50:00,
2013-03-05 13:55:00,44.5,29.4,29.91,NNE,33,1.0,5.0,55,0.00,,---,0.00,VWS V14.01,2013-03-05 18:55:00,
2013-03-05 14:00:00,44.5,29.4,29.91,North,360,3.0,9.0,55,0.00,,---,0.00,VWS V14.01,2013-03-05 19:00:00,
2013-03-05 14:05:00,44.6,29.5,29.91,North,360,5.0,6.0,55,0.00,,---,0.00,VWS V14.01,2013-03-05 19:05:00,
2013-03-05 14:10:00,44.6,29.5,29.91,NNE,26,6.0,9.0,55,0.00,,---,0.00,VWS V14.01,2013-03-05 19:10:00,
2013-03-05 14:15:00,44.8,29.6,29.91,East,94,2.0,8.0,55,0.00,,---,0.00,VWS V14.01,2013-03-05 19:15:00,
2013-03-05 14:20:00,45.1,29.9,29.92,NE,36,2.0,6.0,55,0.00,,---,0.00,VWS V14.01,2013-03-05 19:20:00,
2013-03-05 14:25:00,45.2,29.6,29.92,NNE,30,3.0,9.0,54,0.00,,---,0.00,VWS V14.01,2013-03-05 19:25:00,
2013-03-05 14:30:00,45.2,30.0,29.92,NE,46,8.0,8.0,55,0.00,,---,0.00,VWS V14.01,2013-03-05 19:30:00,
2013-03-05 14:35:00,45.1,29.5,29.92,ENE,60,3.0,7.0,54,0.00,,---,0.00,VWS V14.01,2013-03-05 19:35:00,
2013-03-05 14:40:00,44.9,29.7,29.92,NNE,24,5.0,5.0,55,0.00,,---,0.00,VWS V14.01,2013-03-05 19:40:00,
2013-03-05 14:45:00,45.1,29.9,29.92,NE,56,2.0,5.0,55,0.00,,---,0.00,VWS V14.01,2013-03-05 19:45:00,
2013-03-05 14:50:00,44.9,29.3,29.93,NE,39,2.0,7.0,54,0.00,,---,0.00,VWS V14.01,2013-03-05 19:50:00,
2013-03-05 14:55:00,44.9,29.7,29.93,East,90,2.0,6.0,55,0.00,,---,0.00,VWS V14.01,2013-03-05 19:55:00,
2013-03-05 14:59:00,45.1,29.9,29.93,NNE,32,3.0,6.0,55,0.00,,---,0.00,VWS V14.01,2013-03-05 19:59:00,
2013-03-05 15:05:00,44.8,29.6,29.93,ESE,103,2.0,8.0,55,0.00,,---,0.00,VWS V14.01,2013-03-05 20:05:00,
2013-03-05 15:10:00,44.5,29.4,29.93,East,94,2.0,8.0,55,0.00,,---,0.00,VWS V14.01,2013-03-05 20:10:00,
2013-03-05 15:15:00,44.3,29.2,29.93,SE,128,6.0,7.0,55,0.00,,---,0.00,VWS V14.01,2013-03-05 20:15:00,
2013-03-05 15:20:00,44.3,29.2,29.94,NNE,17,4.0,9.0,55,0.00,,---,0.00,VWS V14.01,2013-03-05 20:20:00,
2013-03-05 15:24:00,44.3,29.6,29.94,NE,34,2.0,4.0,56,0.00,,---,0.00,VWS V14.01,2013-03-05 20:24:00,
2013-03-05 15:30:00,44.3,29.6,29.94,NE,51,3.0,5.0,56,0.00,,---,0.00,VWS V14.01,2013-03-05 20:30:00,
2013-03-05 15:35:00,44.3,29.6,29.95,NE,51,2.0,3.0,56,0.00,,---,0.00,VWS V14.01,2013-03-05 20:35:00,
2013-03-05 15:40:00,44.2,29.1,29.95,East,96,5.0,8.0,55,0.00,,---,0.00,VWS V14.01,2013-03-05 20:40:00,
2013-03-05 15:45:00,44.1,29.4,29.95,East,95,2.0,8.0,56,0.00,,---,0.00,VWS V14.01,2013-03-05 20:45:00,
2013-03-05 15:49:00,44.1,29.4,29.95,East,96,0.0,4.0,56,0.00,,---,0.00,VWS V14.01,2013-03-05 20:49:00,
2013-03-05 15:54:00,43.9,29.2,29.95,NE,38,0.0,4.0,56,0.00,,---,0.00,VWS V14.01,2013-03-05 20:54:00,
2013-03-05 15:59:00,43.9,29.2,29.95,SE,125,5.0,7.0,56,0.00,,---,0.00,VWS V14.01,2013-03-05 20:59:00,
2013-03-05 16:04:00,43.8,29.1,29.96,East,94,6.0,7.0,56,0.00,,---,0.00,VWS V14.01,2013-03-05 21:04:00,
2013-03-05 16:09:00,43.6,29.4,29.96,ESE,115,5.0,5.0,57,0.00,,---,0.00,VWS V14.01,2013-03-05 21:09:00,
2013-03-05 16:14:00,43.6,29.4,29.96,NE,51,3.0,12.0,57,0.00,,---,0.00,VWS V14.01,2013-03-05 21:14:00,
2013-03-05 16:19:00,43.6,29.4,29.96,ESE,106,1.0,5.0,57,0.00,,---,0.00,VWS V14.01,2013-03-05 21:19:00,
2013-03-05 16:24:00,43.6,29.4,29.96,NNE,30,0.0,11.0,57,0.00,,---,0.00,VWS V14.01,2013-03-05 21:24:00,
2013-03-05 16:29:00,43.6,29.4,29.96,East,96,5.0,9.0,57,0.00,,---,0.00,VWS V14.01,2013-03-05 21:29:00,
2013-03-05 16:35:00,43.5,28.9,29.97,NE,44,3.0,4.0,56,0.00,,---,0.00,VWS V14.01,2013-03-05 21:35:00,
2013-03-05 16:40:00,43.5,28.9,29.97,ENE,59,1.0,3.0,56,0.00,,---,0.00,VWS V14.01,2013-03-05 21:40:00,
2013-03-05 16:45:00,43.5,28.9,29.97,ENE,58,3.0,5.0,56,0.00,,---,0.00,VWS V14.01,2013-03-05 21:45:00,
2013-03-05 16:49:00,43.5,28.4,29.97,ENE,58,2.0,3.0,55,0.00,,---,0.00,VWS V14.01,2013-03-05 21:49:00,
2013-03-05 16:55:00,43.5,28.4,29.97,ENE,58,0.0,3.0,55,0.00,,---,0.00,VWS V14.01,2013-03-05 21:55:00,
2013-03-05 16:59:00,43.5,28.4,29.97,ENE,58,2.0,4.0,55,0.00,,---,0.00,VWS V14.01,2013-03-05 21:59:00,
2013-03-05 17:04:00,43.5,28.4,29.97,ENE,58,2.0,2.0,55,0.00,,---,0.00,VWS V14.01,2013-03-05 22:04:00,
2013-03-05 17:09:00,43.5,28.4,29.97,ENE,58,0.0,2.0,55,0.00,,---,0.00,VWS V14.01,2013-03-05 22:09:00,
2013-03-05 17:14:00,43.5,28.4,29.97,ENE,58,2.0,3.0,55,0.00,,---,0.00,VWS V14.01,2013-03-05 22:14:00,
2013-03-05 17:19:00,43.5,28.4,29.97,ENE,58,1.0,4.0,55,0.00,,---,0.00,VWS V14.01,2013-03-05 22:19:00,
2013-03-05 17:24:00,43.5,28.4,29.97,ENE,58,0.0,2.0,55,0.00,,---,0.00,VWS V14.01,2013-03-05 22:24:00,
2013-03-05 17:29:00,43.5,28.4,29.97,ENE,58,0.0,2.0,55,0.00,,---,0.00,VWS V14.01,2013-03-05 22:29:00,
2013-03-05 17:34:00,43.5,28.4,29.97,ENE,58,0.0,4.0,55,0.00,,---,0.00,VWS V14.01,2013-03-05 22:34:00,
2013-03-05 17:39:00,43.3,28.2,29.97,ENE,58,0.0,2.0,55,0.00,,---,0.00,VWS V14.01,2013-03-05 22:39:00,
2013-03-05 17:44:00,43.3,28.7,29.97,ENE,58,0.0,3.0,56,0.00,,---,0.00,VWS V14.01,2013-03-05 22:44:00,
2013-03-05 17:49:00,43.3,28.7,29.98,ENE,58,1.0,2.0,56,0.00,,---,0.00,VWS V14.01,2013-03-05 22:49:00,
2013-03-05 17:54:00,43.2,29.4,29.98,ENE,68,2.0,8.0,58,0.00,,---,0.00,VWS V14.01,2013-03-05 22:54:00,
2013-03-05 17:59:00,42.9,30.4,29.98,ESE,106,5.0,7.0,61,0.00,,---,0.00,VWS V14.01,2013-03-05 22:59:00,
2013-03-05 18:04:00,42.5,30.4,29.98,ENE,77,5.0,8.0,62,0.00,,---,0.00,VWS V14.01,2013-03-05 23:04:00,
2013-03-05 18:09:00,42.3,30.6,29.98,East,86,2.0,5.0,63,0.00,,---,0.00,VWS V14.01,2013-03-05 23:09:00,
2013-03-05 18:14:00,42.2,30.9,29.98,East,86,5.0,5.0,64,0.00,,---,0.00,VWS V14.01,2013-03-05 23:14:00,
2013-03-05 18:19:00,42.1,30.8,29.98,ENE,68,1.0,5.0,64,0.00,,---,0.00,VWS V14.01,2013-03-05 23:19:00,
2013-03-05 18:24:00,41.9,31.0,29.98,ENE,68,0.0,2.0,65,0.00,,---,0.00,VWS V14.01,2013-03-05 23:24:00,
2013-03-05 18:29:00,41.8,31.3,29.98,East,101,2.0,5.0,66,0.00,,---,0.00,VWS V14.01,2013-03-05 23:29:00,
2013-03-05 18:34:00,41.8,31.3,29.99,ESE,110,2.0,6.0,66,0.00,,---,0.00,VWS V14.01,2013-03-05 23:34:00,
2013-03-05 18:39:00,41.6,31.5,29.99,ESE,103,0.0,4.0,67,0.00,,---,0.00,VWS V14.01,2013-03-05 23:39:00,
2013-03-05 18:44:00,41.5,31.7,29.99,ENE,78,1.0,6.0,68,0.00,,---,0.00,VWS V14.01,2013-03-05 23:44:00,
2013-03-05 18:49:00,41.3,31.5,29.99,ENE,78,2.0,2.0,68,0.00,,---,0.00,VWS V14.01,2013-03-05 23:49:00,
2013-03-05 18:54:00,41.2,31.5,29.99,ENE,61,0.0,5.0,68,0.00,,---,0.00,VWS V14.01,2013-03-05 23:54:00,
2013-03-05 18:59:00,41.1,31.7,29.99,SSE,151,5.0,5.0,69,0.00,,---,0.00,VWS V14.01,2013-03-05 23:59:00,
2013-03-05 19:04:00,40.9,31.5,30.00,ESE,107,0.0,1.0,69,0.00,,---,0.00,VWS V14.01,2013-03-06 00:04:00,
2013-03-05 19:09:00,40.9,31.9,30.00,ESE,107,0.0,1.0,70,0.00,,---,0.00,VWS V14.01,2013-03-06 00:09:00,
2013-03-05 19:14:00,40.8,31.8,30.00,ENE,74,2.0,2.0,70,0.00,,---,0.00,VWS V14.01,2013-03-06 00:14:00,
2013-03-05 19:19:00,40.6,32.0,30.01,East,80,2.0,2.0,71,0.00,,---,0.00,VWS V14.01,2013-03-06 00:19:00,
2013-03-05 19:24:00,40.6,32.0,30.01,East,80,1.0,4.0,71,0.00,,---,0.00,VWS V14.01,2013-03-06 00:24:00,
2013-03-05 19:29:00,40.5,32.2,30.01,East,94,0.0,5.0,72,0.00,,---,0.00,VWS V14.01,2013-03-06 00:29:00,
2013-03-05 19:34:00,40.3,32.0,30.00,East,93,2.0,4.0,72,0.00,,---,0.00,VWS V14.01,2013-03-06 00:34:00,
2013-03-05 19:39:00,40.2,32.2,30.00,East,93,0.0,2.0,73,0.00,,---,0.00,VWS V14.01,2013-03-06 00:39:00,
2013-03-05 19:44:00,40.2,32.2,30.00,East,93,4.0,4.0,73,0.00,,---,0.00,VWS V14.01,2013-03-06 00:44:00,
2013-03-05 19:49:00,40.1,32.2,30.00,SE,146,0.0,1.0,73,0.00,,---,0.00,VWS V14.01,2013-03-06 00:49:00,
2013-03-05 19:54:00,39.9,32.3,30.00,East,92,0.0,6.0,74,0.00,,---,0.00,VWS V14.01,2013-03-06 00:54:00,
2013-03-05 19:59:00,39.8,32.2,30.00,East,92,0.0,1.0,74,0.00,,---,0.00,VWS V14.01,2013-03-06 00:59:00,
2013-03-05 20:04:00,39.6,32.3,30.01,ESE,114,0.0,6.0,75,0.00,,---,0.00,VWS V14.01,2013-03-06 01:04:00,
2013-03-05 20:09:00,39.5,32.2,30.01,ESE,114,0.0,0.0,75,0.00,,---,0.00,VWS V14.01,2013-03-06 01:09:00,
2013-03-05 20:14:00,39.3,32.0,30.01,ESE,114,0.0,1.0,75,0.00,,---,0.00,VWS V14.01,2013-03-06 01:14:00,
2013-03-05 20:19:00,39.2,32.0,30.01,ESE,114,0.0,0.0,75,0.00,,---,0.00,VWS V14.01,2013-03-06 01:19:00,
2013-03-05 20:24:00,39.2,32.3,30.01,ESE,114,0.0,0.0,76,0.00,,---,0.00,VWS V14.01,2013-03-06 01:24:00,
2013-03-05 20:29:00,38.9,32.0,30.01,ESE,114,0.0,0.0,76,0.00,,---,0.00,VWS V14.01,2013-03-06 01:29:00,
2013-03-05 20:34:00,38.8,32.2,30.01,ESE,114,1.0,1.0,77,0.00,,---,0.00,VWS V14.01,2013-03-06 01:34:00,
2013-03-05 20:39:00,38.8,32.2,30.01,ESE,114,0.0,0.0,77,0.00,,---,0.00,VWS V14.01,2013-03-06 01:39:00,
2013-03-05 20:44:00,38.6,32.3,30.01,ESE,114,0.0,0.0,78,0.00,,---,0.00,VWS V14.01,2013-03-06 01:44:00,
2013-03-05 20:49:00,38.5,32.2,30.01,ESE,114,0.0,0.0,78,0.00,,---,0.00,VWS V14.01,2013-03-06 01:49:00,
2013-03-05 20:54:00,38.3,32.4,30.01,ESE,114,0.0,2.0,79,0.00,,---,0.00,VWS V14.01,2013-03-06 01:54:00,
2013-03-05 20:59:00,38.2,32.3,30.01,ESE,114,0.0,0.0,79,0.00,,---,0.00,VWS V14.01,2013-03-06 01:59:00,
2013-03-05 21:04:00,38.0,32.4,30.01,ESE,114,0.0,0.0,80,0.00,,---,0.00,VWS V14.01,2013-03-06 02:04:00,
2013-03-05 21:09:00,37.9,32.3,30.01,ESE,114,0.0,0.0,80,0.00,,---,0.00,VWS V14.01,2013-03-06 02:09:00,
2013-03-05 21:14:00,37.9,32.3,30.01,ESE,114,2.0,2.0,80,0.00,,---,0.00,VWS V14.01,2013-03-06 02:14:00,
2013-03-05 21:19:00,37.8,32.5,30.01,ESE,114,0.0,0.0,81,0.00,,---,0.00,VWS V14.01,2013-03-06 02:19:00,
2013-03-05 21:24:00,37.8,32.5,30.01,ESE,114,0.0,0.0,81,0.00,,---,0.00,VWS V14.01,2013-03-06 02:24:00,
2013-03-05 21:29:00,37.6,32.3,30.01,ESE,114,0.0,0.0,81,0.00,,---,0.00,VWS V14.01,2013-03-06 02:29:00,
2013-03-05 21:34:00,37.6,32.3,30.01,ESE,114,0.0,0.0,81,0.00,,---,0.00,VWS V14.01,2013-03-06 02:34:00,
2013-03-05 21:39:00,37.5,32.2,30.01,ESE,114,0.0,0.0,81,0.00,,---,0.00,VWS V14.01,2013-03-06 02:39:00,
2013-03-05 21:44:00,37.5,32.5,30.01,ESE,113,0.0,0.0,82,0.00,,---,0.00,VWS V14.01,2013-03-06 02:44:00,
2013-03-05 21:49:00,37.3,32.3,30.01,ESE,114,0.0,0.0,82,0.00,,---,0.00,VWS V14.01,2013-03-06 02:49:00,
2013-03-05 21:54:00,37.2,32.2,30.01,ESE,113,0.0,0.0,82,0.00,,---,0.00,VWS V14.01,2013-03-06 02:54:00,
2013-03-05 21:59:00,37.2,32.2,30.01,ESE,114,0.0,0.0,82,0.00,,---,0.00,VWS V14.01,2013-03-06 02:59:00,
2013-03-05 22:04:00,37.0,32.0,30.02,ESE,114,0.0,0.0,82,0.00,,---,0.00,VWS V14.01,2013-03-06 03:04:00,
2013-03-05 22:09:00,36.6,31.6,30.02,ESE,114,2.0,2.0,82,0.00,,---,0.00,VWS V14.01,2013-03-06 03:09:00,
2013-03-05 22:14:00,36.2,31.2,30.02,ESE,114,1.0,2.0,82,0.00,,---,0.00,VWS V14.01,2013-03-06 03:14:00,
2013-03-05 22:19:00,35.8,31.1,30.03,ESE,114,0.0,0.0,83,0.00,,---,0.00,VWS V14.01,2013-03-06 03:19:00,
2013-03-05 22:24:00,35.6,31.2,30.03,ESE,114,0.0,0.0,84,0.00,,---,0.00,VWS V14.01,2013-03-06 03:24:00,
2013-03-05 22:29:00,35.5,31.1,30.03,ESE,114,0.0,0.0,84,0.00,,---,0.00,VWS V14.01,2013-03-06 03:29:00,
2013-03-05 22:34:00,35.5,31.5,30.03,ESE,114,0.0,0.0,85,0.00,,---,0.00,VWS V14.01,2013-03-06 03:34:00,
2013-03-05 22:39:00,35.5,31.5,30.03,ESE,114,0.0,0.0,85,0.00,,---,0.00,VWS V14.01,2013-03-06 03:39:00,
2013-03-05 22:44:00,35.3,31.5,30.03,ESE,114,0.0,0.0,86,0.00,,---,0.00,VWS V14.01,2013-03-06 03:44:00,
2013-03-05 22:49:00,35.3,31.5,30.03,ESE,114,0.0,1.0,86,0.00,,---,0.00,VWS V14.01,2013-03-06 03:49:00,
2013-03-05 22:54:00,35.3,31.5,30.03,ESE,113,0.0,1.0,86,0.00,,---,0.00,VWS V14.01,2013-03-06 03:54:00,
2013-03-05 22:59:00,35.5,32.0,30.03,North,360,1.0,2.0,87,0.00,,---,0.00,VWS V14.01,2013-03-06 03:59:00,
2013-03-05 23:04:00,35.5,32.0,30.02,North,360,0.0,1.0,87,0.00,,---,0.00,VWS V14.01,2013-03-06 04:04:00,
2013-03-05 23:09:00,35.5,32.0,30.02,North,360,0.0,0.0,87,0.00,,---,0.00,VWS V14.01,2013-03-06 04:09:00,
2013-03-05 23:14:00,35.5,31.7,30.02,North,360,0.0,1.0,86,0.00,,---,0.00,VWS V14.01,2013-03-06 04:14:00,
2013-03-05 23:19:00,35.3,31.8,30.01,North,360,0.0,0.0,87,0.00,,---,0.00,VWS V14.01,2013-03-06 04:19:00,
2013-03-05 23:24:00,35.3,31.8,30.01,North,360,0.0,1.0,87,0.00,,---,0.00,VWS V14.01,2013-03-06 04:24:00,
2013-03-05 23:29:00,35.3,31.8,30.01,North,360,0.0,0.0,87,0.00,,---,0.00,VWS V14.01,2013-03-06 04:29:00,
2013-03-05 23:34:00,35.3,31.8,30.00,North,360,0.0,0.0,87,0.00,,---,0.00,VWS V14.01,2013-03-06 04:34:00,
2013-03-05 23:39:00,35.3,31.8,30.00,North,360,0.0,0.0,87,0.00,,---,0.00,VWS V14.01,2013-03-06 04:39:00,
2013-03-05 23:44:00,35.2,31.7,30.00,North,360,0.0,0.0,87,0.00,,---,0.00,VWS V14.01,2013-03-06 04:44:00,
2013-03-05 23:49:00,35.0,31.5,30.00,North,360,0.0,0.0,87,0.00,,---,0.00,VWS V14.01,2013-03-06 04:49:00,
2013-03-05 23:54:00,35.0,31.8,30.00,North,360,0.0,0.0,88,0.00,,---,0.00,VWS V14.01,2013-03-06 04:54:00,
2013-03-05 23:59:00,35.0,31.8,30.00,North,360,0.0,1.0,88,0.00,,---,0.00,VWS V14.01,2013-03-06 04:59:00,